RH
38 36 36 34 32 31 30 29 28 27 25 24 23 23 23 23 22 22 22 21 20 18 17 16 14 13 10 8 7 7 6 6 6 5 5 5 5 5 5 5 4 4 5 5 5 5 4 5 4 4 4 3 4 3 3 3 3 3 3 3 3 3 3
39 38 36 34 33 32 32 31 29 27 24 23 23 23 22 22 22 22 22 21 20 18 17 15 14 12 10 8 7 7 6 6 6 5 5 5 5 5 5 5 4 5 5 5 6 5 5 5 4 4 4 3 3 3 3 3 3 3 3 3 3 3 3
41 38 35 33 34 34 34 33 30 27 25 23 23 22 22 22 22 22 21 20 19 18 16 14 13 11 9 8 7 7 7 6 5 5 5 5 5 5 5 5 5 5 5 6 6 6 5 5 5 4 4 3 3 3 3 3 3 3 3 3 3 3 3
39 37 35 35 35 35 35 34 31 29 27 24 22 21 22 22 22 21 21 20 19 17 15 13 11 10 8 7 7 7 6 6 5 5 5 5 5 5 5 6 6 6 5 6 6 6 5 5 4 4 3 3 3 3 3 3 3 3 3 3 3 3 3
37 36 36 37 37 37 36 34 33 31 28 24 22 21 21 21 21 21 20 19 17 15 13 11 9 8 8 7 7 7 6 6 6 5 5 6 6 6 6 6 5 5 5 5 5 5 4 4 3 3 3 3 3 3 2 2 2 2 2 2 2 2 3
35 35 36 37 37 37 36 35 34 31 27 24 21 21 21 21 21 20 19 18 16 14 11 10 9 8 8 7 7 6 6 6 6 6 6 6 6 6 5 5 5 4 4 4 4 4 4 4 3 3 3 3 2 2 2 2 2 2 2 2 2 2 3
35 36 36 36 36 36 35 35 34 30 26 22 20 20 21 21 20 19 18 17 14 12 10 9 9 8 8 7 7 7 7 6 6 6 6 6 5 5 4 4 4 4 4 4 4 4 4 4 3 3 3 3 2 2 2 2 2 2 2 3 3 3 3
36 36 35 34 34 34 34 33 31 28 23 21 20 20 20 20 19 18 17 15 13 11 10 9 9 8 8 8 7 7 7 6 6 6 5 5 4 4 4 4 4 4 4 4 4 4 4 4 4 3 3 3 3 2 2 2 2 3 3 3 3 3 3
35 34 33 32 32 32 32 31 29 25 21 19 19 19 19 19 18 17 15 13 11 10 10 9 9 9 9 8 8 7 6 6 5 5 5 5 5 5 5 5 5 5 4 4 4 5 4 4 4 3 3 3 3 3 3 3 3 3 3 3 3 3 3
34 33 32 30 30 30 30 29 27 23 20 19 19 19 19 18 17 16 14 12 11 10 10 10 10 9 9 9 8 7 6 5 5 5 5 5 5 5 5 5 5 5 4 4 4 5 5 4 4 3 3 3 3 3 3 3 4 3 3 3 3 3 3
32 31 30 30 29 29 29 28 25 21 19 19 18 18 18 18 16 14 12 11 10 10 10 10 10 10 9 9 7 6 5 5 5 5 6 6 6 5 4 4 5 4 5 5 5 5 5 4 4 3 3 3 3 3 3 3 4 4 4 4 3 4 3
31 30 29 29 28 28 28 27 23 20 19 18 18 17 16 15 14 13 12 12 11 11 11 10 11 10 9 7 6 5 5 5 5 5 5 6 6 5 4 4 5 4 5 5 4 5 5 4 4 3 3 4 3 4 4 3 4 4 4 4 4 4 4
30 30 29 28 28 28 27 25 22 20 19 19 18 17 14 12 12 11 11 12 12 12 12 12 12 11 9 7 6 5 5 5 5 5 5 6 6 6 5 4 5 4 4 5 4 4 4 4 4 4 4 4 4 4 4 4 4 4 4 4 4 4 4
29 29 28 28 27 27 25 24 21 20 19 19 18 16 13 11 10 10 11 11 11 12 12 12 11 9 7 7 7 7 6 5 5 5 5 5 6 6 5 4 4 4 4 4 4 4 4 4 4 4 4 4 4 4 5 5 5 5 5 5 5 4 4
29 28 27 27 26 25 24 23 21 20 20 19 18 14 11 10 10 11 11 11 11 12 12 11 9 7 6 7 7 7 6 5 5 5 5 5 6 6 6 5 4 4 4 4 4 4 4 4 4 4 4 4 5 5 5 5 5 5 5 5 5 5 5
27 26 26 25 24 23 23 22 21 21 20 18 15 12 10 10 11 11 11 12 12 12 11 9 7 6 7 7 7 7 7 6 6 6 5 6 6 6 6 5 4 4 4 5 5 5 5 5 5 5 5 5 5 5 5 6 6 6 6 6 6 6 6
26 25 24 23 23 23 23 22 21 19 18 16 12 11 10 10 11 12 12 13 13 12 10 7 6 6 7 8 7 7 7 6 6 7 7 7 7 8 8 6 5 5 6 6 6 6 6 5 5 5 5 5 5 5 6 6 7 6 6 6 7 7 6
24 23 23 22 22 22 22 22 20 17 16 13 11 10 10 10 11 12 13 13 13 11 8 6 6 6 7 8 8 7 7 6 6 8 9 9 9 9 9 8 6 7 7 7 7 7 6 6 6 5 5 5 5 5 6 7 7 7 6 7 7 7 7
23 22 23 22 22 22 21 20 18 15 13 12 11 10 10 10 12 13 13 13 12 9 8 6 6 7 7 7 8 7 7 7 7 9 11 11 11 10 9 9 9 9 9 8 8 8 8 7 7 7 6 6 6 6 7 7 7 7 7 7 7 8 8
22 22 23 22 21 21 19 18 16 14 12 11 11 10 10 11 13 13 13 13 11 9 8 7 7 7 6 7 8 8 8 8 8 10 12 12 11 10 9 9 10 10 9 9 10 10 10 9 8 7 7 7 7 7 7 8 8 8 8 8 9 9 8
22 22 22 22 20 19 17 15 14 13 12 11 11 11 11 12 13 13 12 12 10 9 8 7 7 7 6 7 8 8 10 11 10 11 12 12 12 11 10 9 9 9 9 10 10 11 11 10 8 8 9 9 10 10 10 11 12 12 12 13 13 13 11
22 22 22 20 18 16 15 14 13 12 12 11 11 12 13 13 13 12 11 11 10 9 8 8 7 7 7 7 8 9 11 13 13 13 13 13 13 12 9 8 9 10 10 10 10 10 10 9 9 10 11 12 12 13 13 14 15 15 15 16 17 16 15
21 20 19 17 15 15 14 13 12 12 12 12 12 13 13 13 12 11 10 10 10 9 8 8 7 7 7 7 8 10 12 14 14 14 13 13 13 12 10 9 10 10 10 10 10 10 9 10 10 11 12 12 13 14 15 16 17 16 16 16 16 16 14
19 17 16 15 15 15 15 13 12 12 12 13 14 14 13 12 12 10 9 10 10 10 9 8 7 7 7 8 9 11 13 14 15 16 14 13 13 13 11 10 11 11 11 11 11 10 10 10 10 11 11 11 11 13 15 16 17 17 17 17 17 16 14
15 14 14 14 15 16 14 13 13 13 13 14 14 14 13 12 11 10 9 9 9 9 9 8 8 8 9 10 11 11 12 13 14 15 16 14 14 14 13 12 12 12 12 12 11 11 11 10 10 10 10 10 10 10 12 12 13 15 15 15 16 16 14
13 13 14 15 16 15 14 13 14 14 14 14 14 13 12 12 11 10 9 9 9 9 9 8 9 10 12 13 13 12 12 13 13 14 15 15 15 15 14 14 14 13 13 13 12 12 12 11 10 9 9 9 9 9 9 9 10 11 11 11 11 12 11
13 13 14 15 15 14 14 16 17 16 14 14 12 12 12 12 11 10 9 9 8 8 8 8 9 12 14 14 14 13 12 13 14 14 15 16 16 16 15 15 15 14 14 14 14 14 13 11 10 10 9 9 9 9 9 9 9 10 9 9 9 9 8
13 13 13 14 14 14 16 18 18 16 14 12 11 11 11 11 10 10 9 8 8 9 9 9 11 14 15 15 14 13 13 13 14 15 15 15 15 15 15 15 15 15 14 14 14 14 13 12 11 10 10 10 10 9 9 9 10 11 11 10 9 9 8
12 12 13 13 14 15 17 20 20 16 13 11 10 10 11 10 9 9 9 8 9 10 11 13 14 16 17 16 16 15 13 12 13 13 13 13 13 13 13 13 13 14 14 14 14 13 13 12 11 11 10 10 10 10 10 10 11 12 12 12 11 10 8
12 12 13 14 16 17 18 20 19 15 11 10 10 10 11 10 9 8 8 9 11 12 14 16 17 18 19 19 19 17 14 12 11 10 10 11 11 12 12 12 13 13 13 13 14 13 13 12 12 11 11 11 11 11 11 11 12 13 14 14 14 12 10
12 12 13 15 17 18 19 19 17 13 10 9 10 10 10 9 8 8 8 10 12 13 14 15 16 17 18 18 18 17 14 13 11 10 10 10 11 11 12 12 12 13 13 13 13 14 13 13 13 12 12 11 11 11 11 11 12 12 13 14 14 12 10
12 13 14 15 15 16 17 18 17 14 11 10 9 10 9 9 8 7 9 12 15 15 14 13 13 13 13 13 14 13 13 13 13 13 12 11 11 11 11 12 13 13 13 13 13 14 14 13 13 12 12 11 11 11 10 10 10 10 10 10 10 9 8
13 13 14 14 13 13 14 14 13 13 12 11 10 9 9 8 8 9 11 13 15 16 15 14 13 11 10 10 10 10 12 12 13 14 14 13 12 11 10 11 11 12 12 12 12 13 13 12 12 11 11 10 10 9 9 9 8 8 8 8 8 7 7
12 11 11 11 11 11 11 11 11 10 10 10 10 9 9 10 11 12 13 14 15 15 15 13 12 10 10 10 10 10 10 11 11 12 13 13 13 12 11 11 11 11 11 11 11 11 11 11 10 10 9 9 9 8 8 8 8 8 8 8 7 6 6
12 10 8 8 8 9 10 9 9 9 9 9 9 9 11 13 14 15 15 14 14 14 12 11 10 10 9 10 10 10 10 10 10 11 11 12 12 12 12 12 12 12 12 12 11 11 11 11 10 10 9 9 8 8 8 8 8 8 8 8 7 7 5
12 10 8 8 8 9 9 8 8 8 8 8 9 11 13 16 17 17 16 14 13 12 11 10 10 10 10 10 9 10 10 10 11 11 11 11 12 12 12 12 12 13 13 13 13 13 12 12 12 11 11 10 10 9 9 9 8 9 9 8 8 7 6
Wind_Speed
87 87 88 88 88 88 88 88 88 89 89 90 90 91 90 91 91 92 92 93 94 95 95 96 97 97 98 98 97 97 98 99 99 98 98 98 98 97 97 98 97 96 96 99 102 105 109 113 113 112 113 113 113 114 114 115 116 117 118 119 121 123 126
89 89 89 89 88 88 88 88 89 89 90 90 90 90 90 91 91 92 92 93 94 95 95 95 95 96 96 96 96 97 98 98 98 97 97 96 96 96 96 96 96 95 95 96 100 104 108 111 111 110 110 111 111 111 111 112 113 114 115 116 118 120 122
90 90 90 89 89 89 89 89 90 90 90 90 90 90 90 90 91 92 92 93 93 94 94 94 94 95 95 95 95 96 97 97 97 96 95 94 94 94 93 94 93 93 93 94 98 103 107 110 109 108 108 109 109 108 108 108 110 111 112 113 115 116 119
91 91 90 90 90 90 90 90 91 90 90 91 90 90 90 90 91 91 92 92 93 93 93 93 93 93 94 94 95 95 96 96 95 94 94 93 92 92 91 92 92 92 93 93 96 102 106 108 106 105 106 107 106 106 106 106 107 108 109 111 111 112 114
92 91 90 90 90 91 91 91 91 91 91 91 91 90 90 90 90 91 91 91 92 91 91 91 92 92 93 94 94 94 94 94 93 93 92 91 91 90 90 90 91 91 91 92 94 99 104 106 103 101 102 103 103 102 103 103 103 104 105 107 107 108 109
92 91 91 91 91 91 91 91 92 92 92 92 91 90 90 90 90 90 90 90 90 90 90 90 91 92 92 92 92 92 93 92 92 91 90 90 89 88 89 89 89 89 88 89 91 96 100 102 100 98 98 100 100 99 100 100 100 100 101 102 103 104 105
93 92 92 92 92 92 92 92 92 92 92 92 91 90 90 90 89 89 89 88 88 89 89 89 90 91 91 92 91 91 91 90 89 89 88 88 87 86 86 86 85 86 86 86 88 91 96 99 98 95 95 96 97 96 96 97 97 96 96 97 99 101 102
93 93 92 92 92 92 92 92 92 93 92 91 91 90 90 89 89 88 87 87 87 88 88 89 89 90 90 91 91 90 89 88 87 85 85 85 84 82 82 82 82 82 83 83 85 87 91 94 95 93 92 93 93 93 93 93 92 92 93 94 96 98 100
94 93 93 92 92 92 92 92 92 93 92 91 90 90 89 88 87 87 86 86 87 87 88 88 89 89 90 90 90 89 88 85 83 82 81 80 80 79 78 78 78 80 81 81 82 84 88 90 91 91 90 89 90 89 88 87 87 89 91 92 93 95 97
94 93 92 92 92 92 92 92 92 92 91 90 89 89 88 87 86 85 85 85 86 87 87 88 88 88 89 89 89 88 85 82 80 78 76 76 77 77 76 75 76 78 78 78 79 82 85 87 89 90 88 87 86 84 83 84 85 87 89 90 91 93 94
93 92 92 91 91 91 91 92 92 91 90 89 89 88 87 86 85 84 84 85 86 87 87 87 87 88 88 88 87 84 81 78 75 73 73 73 74 76 76 74 74 76 76 76 77 80 82 85 87 88 86 84 82 80 80 83 84 85 87 89 90 91 93
92 92 91 91 91 91 91 91 91 90 89 88 88 87 86 84 83 83 83 84 86 87 87 87 87 87 88 87 85 81 78 74 72 70 69 70 72 75 76 73 73 74 74 75 76 78 81 83 84 84 82 80 79 78 79 81 82 83 85 87 88 90 92
92 91 91 91 91 90 90 91 91 89 88 87 87 87 85 83 82 81 82 82 83 85 85 85 85 86 86 85 84 81 77 73 70 67 67 67 69 73 75 73 71 72 73 74 75 77 80 82 81 80 79 77 77 77 77 79 80 81 83 85 87 88 91
91 90 90 90 90 89 89 90 90 88 86 86 86 86 84 83 81 81 81 81 81 82 83 83 84 83 82 80 80 79 76 72 69 67 66 65 66 70 73 72 71 71 72 73 74 76 78 79 77 76 76 76 75 75 75 76 77 79 80 82 85 87 89
90 90 89 89 89 88 88 88 88 86 85 85 85 85 84 82 81 81 81 81 81 81 82 82 82 80 77 75 75 75 74 71 68 66 66 65 65 67 70 70 70 70 70 71 72 73 74 74 73 73 74 74 74 73 73 74 75 77 79 81 83 86 89
89 88 88 88 87 87 86 86 86 85 83 83 84 84 82 81 81 80 80 80 80 80 81 81 79 76 74 72 72 71 71 69 67 66 66 65 64 65 67 68 68 67 66 67 67 68 69 70 70 70 71 72 72 71 71 71 73 75 78 79 81 85 87
88 87 87 86 86 85 84 84 84 83 82 83 84 83 81 80 79 80 80 80 80 80 81 80 77 73 70 70 70 69 68 67 64 64 65 64 63 63 65 66 66 63 63 63 63 64 66 67 68 67 68 69 70 70 69 69 71 73 76 78 80 83 85
86 85 85 84 84 83 82 82 82 81 81 82 83 81 79 78 78 78 78 79 79 80 80 78 74 71 68 67 67 67 67 65 62 62 63 63 62 62 63 64 63 60 60 60 60 62 63 64 64 65 66 67 68 67 67 66 68 71 74 76 79 81 82
84 83 83 82 82 81 80 79 79 80 81 82 82 80 78 76 76 77 77 78 79 79 79 76 73 70 67 65 65 65 65 64 61 60 61 62 62 61 61 60 59 58 59 58 58 58 59 59 62 63 64 64 65 65 65 65 66 69 72 74 76 78 80
82 81 81 81 80 79 78 77 78 80 81 81 80 79 76 75 75 75 75 77 78 78 77 74 72 69 66 64 64 64 63 63 60 58 59 60 60 60 59 57 57 57 57 55 55 55 56 59 61 61 61 62 63 64 64 63 64 66 70 72 73 75 78
80 79 79 79 78 76 76 76 78 79 81 80 79 77 76 74 74 74 74 76 77 77 75 73 70 68 66 62 61 61 61 62 60 58 58 59 59 59 58 57 56 56 55 54 54 55 57 59 59 58 57 59 61 62 62 62 62 64 67 69 70 73 76
78 77 77 77 76 75 75 77 78 78 79 79 77 76 75 74 73 73 73 74 76 75 73 71 69 67 65 63 60 59 59 59 59 58 58 58 58 59 58 56 55 54 54 54 55 56 57 57 56 55 56 57 59 60 61 61 62 64 65 67 69 72 75
76 76 75 74 74 75 76 78 77 77 77 77 76 74 74 73 73 72 72 72 74 73 72 70 68 66 64 62 60 57 56 57 57 58 58 57 57 59 59 56 55 55 54 55 56 56 56 55 54 54 55 57 58 59 60 61 62 63 64 66 68 71 74
74 73 73 73 74 75 77 78 77 76 76 75 74 74 73 72 72 72 71 70 71 71 70 69 67 65 64 62 59 56 55 55 55 57 58 58 57 58 58 56 55 55 55 55 56 56 56 55 55 55 56 57 57 58 59 60 61 62 63 65 67 70 73
73 72 72 72 73 75 77 77 76 76 76 74 73 73 72 71 72 71 70 69 69 69 68 67 65 64 63 61 59 57 54 53 54 55 57 58 57 57 58 57 56 56 56 56 56 56 56 56 56 55 56 56 57 57 58 59 60 61 62 64 66 68 71
72 72 72 72 73 75 76 76 76 76 76 74 73 72 70 70 70 70 69 68 67 66 65 64 63 62 62 61 60 58 55 54 53 54 55 56 57 57 57 56 56 56 56 56 57 57 57 57 57 56 56 56 56 56 57 58 58 59 61 62 64 66 70
71 71 71 71 73 74 75 75 76 77 76 74 73 70 69 69 68 68 67 67 66 65 64 62 60 59 60 59 59 58 56 54 54 53 54 55 55 56 56 56 56 56 56 56 57 57 58 58 57 56 56 55 55 56 56 56 56 57 58 60 61 64 67
71 71 71 71 72 73 72 74 76 77 76 74 72 69 68 67 66 66 66 65 65 64 63 60 59 59 59 59 59 58 57 54 53 53 54 53 54 54 55 55 55 55 56 56 57 58 58 58 57 56 56 56 56 55 55 54 54 55 57 59 61 63 65
71 71 70 70 71 71 70 72 76 78 76 73 70 68 67 66 65 64 64 63 63 63 62 59 58 59 59 60 60 60 58 55 53 52 52 53 53 53 54 54 54 55 55 55 56 57 58 58 57 57 56 55 55 55 54 54 53 54 56 59 61 63 64
70 70 70 70 70 70 69 71 75 77 74 71 69 67 66 66 64 62 61 61 61 60 59 57 57 58 59 59 60 60 59 57 55 53 51 51 52 52 52 53 53 53 54 55 55 56 57 57 57 57 56 55 55 54 54 53 52 53 55 59 62 64 65
70 70 69 68 68 69 70 71 74 76 73 70 67 65 65 64 63 61 59 59 59 59 58 55 54 55 56 55 56 57 58 57 57 55 52 50 50 50 51 51 52 52 53 53 54 54 55 56 56 56 56 55 54 54 53 52 52 53 55 58 61 64 65
71 70 68 68 67 67 68 70 72 74 73 70 67 65 64 63 62 60 57 57 58 59 59 57 55 54 53 53 53 53 54 54 55 55 54 52 50 49 49 49 50 51 51 52 52 52 53 54 54 54 55 54 54 53 52 51 52 52 54 57 59 61 63
71 69 68 68 67 66 66 67 68 68 69 68 66 65 64 63 62 59 56 56 57 58 59 58 57 55 53 53 52 51 50 51 51 51 52 52 52 50 49 48 48 49 50 50 51 51 52 52 52 53 53 53 52 51 50 50 50 50 51 54 55 57 58
72 70 68 67 66 65 65 65 65 65 64 64 64 63 63 62 61 59 57 56 56 57 58 57 57 55 54 53 52 51 50 49 48 48 49 49 50 50 50 49 49 49 49 49 50 50 50 50 50 51 51 51 50 49 48 48 48 48 49 51 52 53 54
75 73 70 67 65 64 64 64 63 63 62 61 61 61 61 60 60 59 58 56 56 56 57 57 56 54 53 51 51 50 50 49 48 47 47 47 48 49 49 49 49 49 49 50 50 50 50 50 50 50 50 50 49 49 47 47 47 47 48 50 51 51 51
74 73 71 68 65 64 63 63 62 61 60 59 59 58 58 58 59 58 58 57 55 55 56 56 55 54 52 51 49 49 49 49 48 48 47 47 48 48 48 48 48 48 49 49 50 50 50 50 50 50 49 50 50 49 47 47 47 47 49 49 50 50 49
Wind_Direction
296 294 293 292 292 293 293 293 292 291 290 289 289 288 288 287 286 286 285 285 285 284 284 284 283 282 281 280 279 278 278 277 276 276 275 275 274 273 272 271 270 269 268 267 266 265 264 263 262 261 260 259 258 257 256 255 254 253 252 251 250 249 248
297 295 294 293 293 293 293 293 292 292 291 290 290 289 288 288 287 287 286 286 286 286 285 284 284 283 282 281 280 279 279 278 277 276 276 275 275 274 273 272 271 270 268 268 267 265 264 263 262 261 260 259 258 257 256 255 255 254 252 251 250 249 248
297 296 294 294 294 293 293 293 292 292 292 291 290 289 289 288 288 287 287 287 287 286 286 285 284 283 282 282 281 280 279 279 278 278 277 276 276 275 274 273 272 271 269 268 267 266 264 263 263 262 261 260 259 258 257 256 255 254 253 251 250 249 248
297 296 296 295 294 294 293 293 293 293 293 292 291 290 289 289 288 288 288 288 288 287 286 286 285 284 283 282 282 281 281 280 280 279 278 278 277 276 275 274 273 271 270 268 267 266 265 264 263 262 261 261 260 259 258 256 255 254 253 252 251 249 248
298 298 297 296 295 294 294 294 294 294 293 292 292 291 290 290 289 289 289 289 289 288 287 286 285 284 284 283 283 282 282 281 281 280 279 279 278 278 276 275 273 272 270 269 267 267 266 265 264 263 262 261 260 259 258 257 256 255 254 253 252 251 249
299 299 298 297 296 295 294 294 294 294 293 293 292 292 291 291 290 290 290 290 289 288 287 286 286 285 284 284 283 283 282 282 281 281 281 280 279 278 277 276 274 273 271 269 267 267 266 265 264 263 262 261 260 259 259 258 256 255 254 254 253 252 250
300 300 299 297 296 296 295 295 295 294 294 294 293 292 292 291 291 291 291 291 290 289 288 287 287 286 286 285 284 283 283 283 282 282 282 281 280 279 277 276 275 273 271 269 267 266 266 266 265 263 262 261 261 260 259 258 257 256 255 254 253 252 250
301 300 299 298 297 296 296 295 295 294 294 294 293 293 292 292 292 292 292 291 290 289 289 288 288 287 287 286 285 284 284 284 284 284 283 282 281 279 277 276 274 273 271 269 267 266 266 266 265 264 262 261 261 260 259 258 258 257 255 253 252 251 250
301 300 299 298 297 296 296 295 295 295 294 294 294 293 293 293 294 293 293 292 291 291 290 290 289 289 288 287 286 285 285 285 285 285 284 283 281 279 277 275 274 272 270 268 267 266 266 265 265 264 263 261 260 260 259 259 258 257 256 254 252 251 251
300 299 298 298 297 296 296 295 295 295 295 295 294 294 294 295 295 294 294 293 292 292 291 291 290 289 288 287 287 287 287 287 287 286 285 284 282 279 276 274 272 270 269 268 267 266 265 265 265 264 263 262 261 261 260 259 258 257 256 255 253 252 251
300 299 298 297 297 296 296 296 295 295 295 295 295 295 295 295 295 295 294 294 293 293 292 291 290 290 289 288 287 288 288 288 287 286 285 283 281 278 275 273 271 269 268 267 266 265 264 264 264 263 263 263 263 262 260 259 257 257 256 255 254 253 252
299 299 298 298 297 297 297 296 296 296 296 296 296 296 296 295 295 295 295 295 295 294 293 292 292 291 291 290 290 290 289 288 287 285 284 282 280 278 275 273 271 269 268 266 265 264 263 263 263 263 264 264 263 262 260 259 258 257 256 255 254 253 252
300 299 298 298 298 297 297 297 296 297 297 297 297 296 296 296 296 295 295 295 294 293 293 292 292 291 291 292 292 292 290 289 287 285 283 281 279 277 275 273 271 269 268 266 265 264 263 263 263 264 264 263 262 261 260 259 258 257 256 256 255 254 253
300 299 299 298 298 298 298 297 297 297 298 298 297 297 296 296 297 296 296 295 294 292 292 291 291 291 291 292 293 292 291 289 288 286 284 281 278 277 275 274 272 270 268 267 266 265 265 265 265 265 264 263 262 260 260 259 258 258 257 256 256 255 255
300 300 299 299 298 298 298 298 298 298 299 298 297 297 297 297 297 297 296 295 294 293 292 292 291 291 292 293 292 291 291 290 289 287 285 282 279 277 276 275 273 271 270 269 268 268 268 268 267 265 264 263 261 260 259 259 258 258 257 257 256 256 256
300 300 299 299 299 299 298 298 298 299 299 298 297 297 297 298 298 298 297 296 295 294 293 292 292 293 293 293 292 291 291 290 290 288 285 282 280 278 277 276 274 273 272 271 271 270 269 268 266 265 264 263 262 260 259 258 258 257 257 257 257 256 257
300 300 299 299 299 299 299 299 299 299 299 298 297 297 298 299 299 298 297 296 296 295 294 293 294 294 294 294 293 292 291 290 289 287 285 283 281 279 278 276 276 275 274 273 271 270 268 267 266 265 264 263 262 261 259 259 258 257 257 257 257 257 257
301 300 300 299 299 299 300 300 300 299 298 297 297 298 299 299 299 298 297 297 297 295 294 295 295 295 295 294 293 293 291 290 288 286 285 283 282 280 278 278 278 277 276 274 271 270 269 268 268 266 264 263 262 261 260 258 258 257 257 257 256 257 257
301 300 300 300 300 300 301 301 300 299 298 297 298 299 299 300 299 298 298 298 297 295 295 296 296 296 296 295 294 292 291 289 288 286 285 284 282 281 280 280 280 278 276 274 272 271 270 268 267 265 264 264 263 262 260 258 257 257 256 256 255 256 256
301 301 300 300 301 301 301 301 299 298 298 298 299 299 300 300 299 299 299 298 297 296 296 297 297 296 296 296 294 292 291 289 287 286 285 284 283 283 282 281 279 277 276 275 273 271 268 266 264 264 264 264 263 263 261 260 258 258 257 257 257 257 257
302 302 301 302 302 302 301 300 299 298 299 299 300 300 301 300 300 300 300 298 297 297 297 297 297 297 296 295 293 291 290 289 288 287 285 284 284 283 282 280 279 278 277 275 272 269 267 266 265 265 265 264 264 263 263 261 260 259 259 259 259 259 259
303 303 303 303 303 302 301 300 299 299 300 300 300 301 301 301 301 300 300 299 298 297 297 297 297 296 296 295 292 290 289 289 288 287 286 285 285 283 282 280 280 278 277 274 272 270 269 268 268 267 266 264 264 263 263 261 260 259 258 257 257 257 258
303 304 304 304 303 303 301 300 300 301 300 300 301 302 302 302 302 301 299 298 298 297 297 297 297 296 295 294 292 291 290 289 288 287 286 285 284 283 282 282 280 279 277 275 274 272 271 270 268 267 265 264 263 263 262 261 260 259 258 257 257 256 257
304 305 305 304 304 302 301 301 301 301 300 301 302 302 302 302 302 300 299 298 297 297 297 297 297 296 295 294 292 291 290 288 288 287 287 286 285 284 283 282 281 279 278 276 274 273 272 270 268 266 264 263 261 260 260 259 258 257 257 257 257 257 258
305 305 305 305 304 302 302 302 302 301 301 302 302 302 303 303 301 300 299 298 297 297 297 297 297 297 295 294 293 292 290 289 287 286 286 285 285 284 283 282 281 280 278 277 275 274 273 271 269 267 265 263 261 259 258 256 255 254 253 253 253 254 256
306 306 305 305 304 303 303 303 303 302 302 303 303 303 303 302 301 300 299 298 297 297 297 297 297 296 295 294 293 293 292 290 288 287 286 285 284 284 283 282 281 280 279 278 277 276 274 273 271 269 267 266 264 262 260 258 256 255 253 252 252 252 254
306 306 305 305 304 303 304 304 303 302 303 303 303 304 303 302 300 300 299 299 298 298 297 297 296 295 294 293 293 292 292 291 290 288 286 285 284 284 283 282 281 280 279 278 277 276 275 274 273 272 271 269 268 266 264 263 262 261 259 257 255 255 255
306 306 305 305 304 305 306 305 303 303 303 303 303 304 303 301 300 300 299 299 299 298 298 298 297 296 295 294 294 293 292 291 290 288 286 285 284 283 282 282 281 280 279 278 278 277 276 275 275 274 273 271 270 269 268 267 266 265 264 262 260 259 258
306 305 305 305 305 306 307 305 303 302 303 303 304 304 303 301 301 300 300 300 300 299 298 299 298 297 296 296 295 294 293 291 290 287 286 285 284 283 282 281 281 280 279 278 277 276 276 276 276 275 273 272 272 271 270 269 267 266 265 265 264 263 262
306 306 306 307 307 307 307 304 302 302 302 303 304 304 303 302 301 301 300 300 298 297 297 297 297 296 295 295 295 294 294 293 291 288 286 285 284 283 282 281 280 279 278 277 276 276 276 276 276 275 274 274 273 272 270 269 268 266 265 264 264 263 264
306 307 308 308 308 307 306 304 303 302 303 304 304 303 302 302 301 301 301 300 298 297 296 296 295 294 293 293 293 293 293 293 292 290 288 286 284 283 282 281 280 279 278 277 276 275 275 275 274 274 274 273 272 271 270 268 266 263 260 259 259 260 261
308 309 309 308 307 306 305 304 303 303 304 304 305 304 303 302 301 302 302 300 299 298 298 298 296 294 293 292 291 291 291 291 291 291 290 288 286 284 282 281 280 279 278 277 276 275 274 273 273 273 272 271 270 269 267 265 263 260 257 256 255 256 257
309 309 308 307 307 306 305 303 302 302 303 304 304 304 304 303 302 303 302 301 300 299 299 299 298 297 295 294 292 291 290 289 289 289 289 289 288 286 284 282 280 279 278 277 276 275 274 273 272 271 271 270 269 268 266 264 262 260 258 258 257 257 257
309 309 309 308 308 307 306 304 303 303 303 304 304 304 304 303 303 303 303 302 301 300 299 298 298 297 296 295 294 293 292 290 289 288 288 287 287 286 286 285 283 282 280 279 278 276 275 274 273 272 272 271 270 269 267 266 265 263 262 261 261 260 259
311 311 311 310 310 308 306 305 305 305 305 305 305 304 304 303 303 303 303 302 301 300 299 298 298 297 297 296 295 294 293 292 291 289 288 286 285 285 284 284 283 282 282 281 280 279 279 278 277 276 275 274 273 271 270 268 267 266 265 264 263 263 262
311 311 311 311 311 310 308 308 307 307 307 306 305 305 304 303 303 303 303 302 302 301 300 299 298 298 298 297 296 295 294 292 291 290 288 287 286 284 283 282 281 281 280 279 279 279 278 278 278 277 277 276 275 273 272 271 269 268 266 265 264 264 263